#timestamp,LO_Frequency,Hit,StdDev 
1527058815.8,286046998.7,N
1527058835.7,286047000.6,N
1527058855.5,286047001.2,N
1527058875.3,286047000.4,N
1527058895.2,286047000.9,N
1527058915.9,286047001.2,N
1527058935.7,286047001.2,N
1527058955.6,286046998.2,N
1527058975.4,286046998.1,N
1527058995.3,286046998.7,N
1527059015.1,286046998.9,N
1527059016.0,286046998.9,N
1527059035.8,286047002.5,N
1527059055.7,286047001.8,N
1527059075.5,286047002.3,N
1527059095.3,286047002.3,N
1527059115.2,286046999.9,N
1527059135.0,286047002.2,N
1527059135.9,286047002.2,N
1527059155.8,286047003.6,N
1527059175.6,286047003.6,N
1527059195.4,286047001.8,N
1527059215.3,286047000.4,N
1527059235.1,286046999.8,N
1527059255.8,286047002.0,N
1527059275.7,286047002.2,N
1527059295.5,286047000.1,N
1527059315.4,286047002.3,N
1527059335.2,286047001.5,N
1527059355.0,286047003.1,N
1527059355.9,286047003.1,N
1527059375.8,286047005.6,Y
1527059395.6,286047002.2,P
1527059415.5,286047002.5,P
1527059435.3,286047002.4,P
1527059455.1,286047000.3,N
1527059475.9,286047001.1,N
1527059495.7,286046998.1,N
1527059515.6,286047001.9,N
1527059535.4,286046999.7,N
1527059555.2,286046999.9,N
1527059575.1,286047001.9,N
1527059576.0,286047001.9,N
1527059595.8,286047005.6,Y
1527059615.7,286047000.0,P
1527059635.5,286047002.8,P
1527059655.3,286047001.6,N
1527059675.2,286046999.9,N
1527059695.0,286046999.5,N
1527059695.9,286046999.5,N
1527059715.7,286046996.8,N
1527059735.6,286046996.8,N
1527059755.4,286046999.4,N
1527059775.3,286046998.9,N
1527059795.1,286046999.6,N
1527059796.0,286046999.6,N
1527059815.8,286047001.2,N
1527059835.7,286046998.2,N
1527059855.5,286046998.5,N
1527059875.3,286046998.6,N
1527059895.2,286046999.3,N
1527059915.0,286046996.7,N
1527059915.9,286046996.7,N
1527059935.8,286046994.9,Y
1527059955.6,286046999.2,P
1527059975.4,286046999.3,P
1527059995.3,286046999.2,P
1527060015.1,286047001.1,Y
1527060035.9,286047002.7,P
1527060055.7,286047002.5,N
1527060075.5,286047001.2,N
1527060095.4,286046998.6,N
1527060115.2,286047000.1,N
1527060135.0,286047001.1,N
1527060135.9,286047001.1,N
1527060155.8,286047000.2,N
1527060175.6,286047000.5,N
1527060195.5,286047000.9,N
1527060215.3,286047000.5,N
1527060235.1,286047001.2,N
1527060255.9,286047001.1,N
1527060275.7,286047002.8,N
1527060295.5,286046998.1,N
1527060315.4,286047002.3,N
1527060335.2,286047002.3,N
1527060355.1,286047002.8,N
1527060356.0,286047002.8,N
1527060375.8,286047002.9,N
1527060395.6,286047004.8,Y
1527060415.5,286047004.3,P
1527060435.3,286047003.8,N
1527060455.1,286047001.8,N
1527060475.9,286047002.7,N
1527060495.7,286047000.1,N
1527060515.6,286047000.5,N
1527060535.4,286047000.2,N
1527060555.2,286047004.4,N
1527060575.1,286047005.7,Y
1527060576.0,286047005.7,P
1527060595.8,286047001.9,N
1527060615.7,286047002.5,N
1527060635.5,286047002.4,N
1527060655.3,286047002.1,N
1527060675.2,286047002.6,N
1527060695.0,286047000.9,N
1527060695.9,286047000.9,N
1527060715.7,286047001.1,N
1527060735.6,286046998.5,N
1527060755.4,286047000.1,N
1527060775.3,286046999.9,N
1527060795.1,286047000.1,N
1527060796.0,286047000.1,N
1527060815.8,286047000.9,N
1527060835.7,286047000.0,N
1527060855.5,286047001.2,N
1527060875.3,286046998.7,N
1527060895.2,286046999.4,N
1527060915.0,286046997.0,N
1527060915.9,286046997.0,N
1527060935.8,286046999.6,N
1527060955.6,286046998.6,N
1527060975.4,286046999.3,N
1527060995.3,286046999.5,N
1527061015.1,286047001.1,N
1527061035.9,286046996.8,N
1527061055.7,286046997.9,N
1527061075.5,286046997.9,N
1527061095.4,286046997.9,N
1527061115.2,286046997.9,N
1527061135.0,286046994.9,Y
1527061135.9,286046994.9,P
1527061155.8,286046996.0,N
1527061175.6,286046995.7,N
1527061195.5,286046995.5,N
1527061215.3,286046995.1,N
1527061235.1,286046997.8,N
1527061255.9,286046996.9,N
1527061275.7,286046995.4,N
1527061295.6,286046995.0,Y
1527061315.4,286047001.2,P
1527061335.2,286046998.6,N
1527061355.1,286047001.1,N
1527061356.0,286047001.1,N
1527061375.8,286047000.5,N
1527061395.6,286046998.8,N
1527061415.5,286046998.7,N
1527061435.3,286046997.0,N
1527061455.2,286046999.5,N
1527061475.9,286046998.9,N
1527061495.7,286046999.5,N
1527061515.6,286046997.3,N
1527061535.4,286046997.7,N
1527061555.3,286046995.2,Y
1527061575.1,286046994.9,P
1527061576.0,286046994.9,N
1527061595.8,286046997.1,N
1527061615.7,286046997.3,N
1527061635.5,286046999.3,N
1527061655.3,286047002.8,N
1527061675.2,286047001.9,N
1527061695.0,286047004.4,N
1527061695.9,286047004.4,N
1527061715.8,286047000.4,N
1527061735.6,286046998.5,N
1527061755.4,286046999.9,N
1527061775.3,286046999.7,N
1527061795.1,286047007.0,N
1527061815.8,286047006.2,N
1527061835.7,286047007.0,N
1527061855.5,286047007.4,N
1527061875.4,286047004.8,N
1527061895.2,286047003.0,N
1527061915.0,286047005.9,N
1527061915.9,286047005.9,N
1527061935.8,286047003.3,N
1527061955.6,286047004.8,N
1527061975.5,286047002.9,N
1527061995.3,286047005.7,N
1527062015.1,286047005.8,N
1527062035.9,286047002.2,N
1527062055.7,286046998.7,N
1527062075.5,286047002.6,N
1527062095.4,286047001.3,N
1527062115.2,286047002.5,N
1527062135.1,286046998.3,N
1527062136.0,286046998.3,N
1527062155.8,286047000.8,N
1527062175.6,286047000.4,N
1527062195.5,286046998.4,N
1527062215.3,286047000.7,N
1527062235.1,286047002.2,N
1527062255.9,286046999.9,N
1527062275.7,286047002.1,N
1527062295.6,286047004.4,N
1527062315.4,286047000.3,N
1527062335.2,286047001.5,N
1527062355.1,286047002.0,N
1527062356.0,286047002.0,N
1527062375.8,286047000.8,N
1527062395.7,286047001.6,N
